Location: Stanford
(52.2833°N, 2.4333°W)
Time: 19:44:17
(UTC+00:00)

Meteor 2-15 - Pass Details

Date: 22 January 2021
Orbit: 936 x 955 km, 82.5° (Epoch: 27 February)

Event Time Altitude Azimuth Distance (km) Brightness Sun altitude
Rises 18:46:03 0° 350° (N) 3,647 7.5 -19.0°
Reaches altitude 10° 18:48:37 10° 354° (N) 2,698 6.8 -19.4°
Maximum altitude 18:54:42 58° 74° (ENE) 1,105 4.4 -20.3°
Drops below altitude 10° 19:00:45 10° 153° (SSE) 2,679 6.6 -21.2°
Sets 19:03:17 0° 158° (SSE) 3,619 7.3 -21.6°
